[[{"header":{"parameterUnit":"m.s-1","parameterCategory":1,"la1":30.2991,"la2":30.254,"lo1":-89.0895,"lo2":-89.0444,"dy":0.0017,"dx":0.0017,"nx":28,"ny":28,"refTime":"2025-09-03T09:00:00:Z","depth":0,"parameterNumber":2,"parameterNumberName":"U-component_of_WINDS"},"data":[0,0,0,0,0,0,0,0,0,0,0,0,0,0,0,0,0,0,0,0,0,0,0,0,0,0,0,0,0,0,0,0,0,0,0,0,0,0,0,0,0,0,0,0,0,0,0,0,0,0,0,0,0,0,0,0,0,0,1.4036,1.4035,0,1.3989,1.3989,1.3988,1.3934,1.3933,1.3932,1.3931,1.3885,1.3884,1.3884,0,0,0,0,0,0,0,0,0,0,0,0,0,1.4076,1.4076,1.4036,1.4035,1.4035,1.399,1.3989,1.3988,1.3934,1.3933,1.3932,1.3931,1.3885,1.3884,1.3884,0,0,0,0,0,0,0,0,0,0,0,0,0,1.4047,1.4075,1.4036,1.4002,1.3998,1.399,1.3989,1.3988,1.3934,1.3933,1.3931,1.393,1.3885,1.3884,1.3884,1.3905,0,0,1.3882,1.3881,0,0,0,0,0,0,0,0,1.4049,1.4046,1.4007,1.4004,1.4,1.3966,1.3986,1.396,1.3934,1.3958,1.3931,1.393,1.3913,1.391,1.3904,1.3903,1.3901,1.3881,1.3881,1.3881,1.3881,0,0,0,0,0,0,0,1.4051,1.4047,1.4017,1.4007,1.4003,1.3989,1.3983,1.3981,1.3943,1.3956,1.3952,1.3947,1.3911,1.3905,1.3902,1.39,1.3881,1.3881,1.388,1.388,1.3911,1.3912,0,0,0,0,0,0,1.4058,1.4049,1.4019,1.4016,1.4022,1.3989,1.3983,1.3978,1.3943,1.3937,1.3948,1.3945,1.3906,1.3903,1.3901,1.392,1.3881,1.388,1.388,1.3909,1.3911,1.3912,0,0,0,0,0,0,1.4059,1.4056,1.4021,1.4031,1.4026,1.399,1.3985,1.3978,1.3972,1.3937,1.393,1.3949,1.3905,1.3901,1.3903,1.3918,1.388,1.3879,1.3908,1.391,1.3912,1.3962,0,0,0,0,0,0,1.406,1.4057,1.4064,1.4032,1.4026,1.4025,1.3986,1.3978,1.3971,1.3966,1.3936,1.393,1.3904,1.3905,1.3903,1.3916,1.3879,1.3906,1.3909,1.3911,1.3959,1.3965,1.3971,0,0,0,0,0,1.4062,1.4081,1.4065,1.4062,1.4035,1.4026,1.4022,1.3991,1.3972,1.3979,1.3957,1.3931,1.3917,1.3905,1.3903,1.3916,1.3905,1.3908,1.3911,1.3956,1.3964,1.3971,0,0,0,0,0,0,1.4117,1.4076,1.4058,1.4067,1.405,1.4016,1.4025,1.4001,1.3989,1.3985,1.3948,1.3941,1.3947,1.3932,1.392,1.3934,1.3907,1.391,1.3943,1.395,1.3956,1.3959,1.3878,0,0,0,0,0,1.413,1.4126,1.4091,1.4103,1.4095,1.4062,1.4056,1.4034,1.4015,1.4007,1.3985,1.3968,1.3959,1.3954,1.3945,1.3957,1.3949,1.3965,1.3971,1.3976,1.3978,1.3981,1.3987,1.3921,1.3921,1.3921,0,0,1.4157,1.4135,1.4134,1.4113,1.4097,1.4093,1.4056,1.4054,1.405,1.4007,1.4007,1.399,1.3968,1.3974,1.3976,1.3962,1.3995,1.398,1.3984,1.3983,1.3984,1.3991,1.3996,1.3923,1.3923,1.3922,0,0,1.4204,1.4188,1.4194,1.4178,1.4154,1.4132,1.4133,1.4103,1.4089,1.4088,1.4055,1.4051,1.4038,1.4022,1.4013,1.4052,1.4027,1.405,1.4081,1.4084,1.4089,1.4094,1.4105,1.411,1.4053,1.4053,1.4053,0,1.424,1.4233,1.42,1.4199,1.419,1.4151,1.4156,1.4143,1.4118,1.4112,1.4096,1.4077,1.406,1.4061,1.407,1.4065,1.4064,1.4053,1.4091,1.4095,1.4099,1.411,1.4114,1.4056,1.4055,1.4055,1.4055,0,1.4278,1.4273,1.4281,1.4256,1.4248,1.4251,1.4218,1.4213,1.4192,1.4171,1.4169,1.4147,1.4131,1.413,1.4109,1.4127,1.4119,1.4098,1.4071,1.4109,1.4118,1.4122,1.406,1.4059,1.4058,1.4057,0,0,1.4357,1.4313,1.4316,1.4303,1.4274,1.4269,1.427,1.4253,1.4249,1.4233,1.4231,1.422,1.42,1.4189,1.4166,1.417,1.4199,1.4148,1.4147,1.4156,1.4214,1.4228,1.4234,1.4183,1.4184,1.4184,1.4215,0,1.4396,1.4393,1.4363,1.4369,1.4363,1.4325,1.4325,1.4307,1.4287,1.4279,1.4257,1.4248,1.4224,1.4217,1.4219,1.4195,1.421,1.4193,1.4179,1.4179,1.4183,1.4239,1.4254,1.4284,1.4219,1.422,1.422,0,1.4441,1.4426,1.4431,1.4399,1.4395,1.4396,1.4377,1.4371,1.4348,1.4333,1.4321,1.4295,1.4292,1.4267,1.4262,1.4251,1.4244,1.4231,1.4232,1.4227,1.42,1.4234,1.4294,1.4297,1.4226,1.4225,1.4225,0,1.4495,1.4476,1.4476,1.4467,1.443,1.4431,1.4416,1.4392,1.4384,1.4368,1.4361,1.4346,1.4337,1.4325,1.4295,1.4281,1.4292,1.4266,1.4278,1.4279,1.428,1.428,1.4338,1.428,1.428,1.428,1.428,0,1.454,1.4544,1.4499,1.4499,1.4501,1.4467,1.4471,1.4452,1.4431,1.4426,1.4393,1.4389,1.4351,1.4342,1.4319,1.4316,1.4313,1.4299,1.4293,1.4301,1.4302,1.4294,1.429,1.4281,1.4281,1.4281,1.428,0,1.46,1.457,1.4567,1.4533,1.4524,1.4527,1.4497,1.4495,1.4473,1.4467,1.4463,1.4429,1.4416,1.4385,1.4366,1.435,1.4352,1.4342,1.436,1.4355,1.4368,1.4366,1.442,1.4425,1.4367,1.4368,1.4368,0,1.463,1.4631,1.4597,1.459,1.4576,1.4567,1.4558,1.4524,1.4516,1.4489,1.449,1.4475,1.4461,1.4443,1.4415,1.4399,1.4387,1.4407,1.4384,1.4391,1.4384,1.4383,1.4382,1.4411,1.4412,1.4412,1.4413,0,1.4685,1.4669,1.4657,1.4639,1.4629,1.4614,1.4596,1.4593,1.4555,1.4547,1.4533,1.4522,1.4501,1.4486,1.4465,1.4449,1.4424,1.4421,1.4422,1.4429,1.4438,1.4431,1.437,1.4419,1.4418,1.4418,1.4418,1.4417,1.4728,1.4727,1.4702,1.4689,1.4672,1.4656,1.4652,1.4629,1.4617,1.4596,1.4577,1.4565,1.4541,1.4511,1.4496,1.4486,1.4473,1.4476,1.4476,1.4477,1.4479,1.4442,1.4482,1.4482,1.4482,1.4482,1.4481,0,1.4779,1.4761,1.4749,1.4725,1.4715,1.4693,1.4672,1.4664,1.4654,1.4634,1.462,1.4603,1.4588,1.456,1.4541,1.4538,1.4526,1.4534,1.4533,1.4529,1.4493,1.4492,1.4544,1.4544,1.4544,1.4544,1.4544,1.4544,1.4804,1.48,1.4782,1.4769,1.475,1.4738,1.4728,1.4712,1.4696,1.4679,1.4665,1.4647,1.4623,1.4602,1.4587,1.4579,1.4572,1.4584,1.4572,1.4538,1.4532,1.4526,1.4525,1.4583,1.4583,1.4608,1.4609,1.4609]},{"header":{"parameterUnit":"m.s-1","parameterCategory":1,"la1":30.2991,"la2":30.254,"lo1":-89.0895,"lo2":-89.0444,"dy":0.0017,"dx":0.0017,"nx":28,"ny":28,"refTime":"2025-09-03T09:00:00:Z","depth":0,"parameterNumber":3,"parameterNumberName":"V-component_of_WINDS"},"data":[0,0,0,0,0,0,0,0,0,0,0,0,0,0,0,0,0,0,0,0,0,0,0,0,0,0,0,0,0,0,0,0,0,0,0,0,0,0,0,0,0,0,0,0,0,0,0,0,0,0,0,0,0,0,0,0,0,0,2.1764,2.1765,0,2.1815,2.1816,2.1817,2.1805,2.1804,2.1803,2.1802,2.1852,2.1854,2.1856,0,0,0,0,0,0,0,0,0,0,0,0,0,2.1653,2.1655,2.1764,2.1765,2.1765,2.1815,2.1816,2.1817,2.1805,2.1804,2.1803,2.1802,2.1851,2.1854,2.1857,0,0,0,0,0,0,0,0,0,0,0,0,0,2.1702,2.1655,2.1764,2.1766,2.1767,2.1815,2.1816,2.1817,2.1806,2.1804,2.1803,2.1801,2.185,2.1854,2.1857,2.1906,0,0,2.1867,2.1869,0,0,0,0,0,0,0,0,2.1699,2.1706,2.1765,2.1766,2.1767,2.1802,2.1795,2.1847,2.1806,2.1791,2.1802,2.1801,2.1837,2.1841,2.1854,2.1909,2.1911,2.1867,2.1869,2.1871,2.1872,0,0,0,0,0,0,0,2.1696,2.1704,2.1784,2.1766,2.1767,2.1763,2.1768,2.1805,2.1821,2.1792,2.1791,2.1798,2.1837,2.185,2.1855,2.1911,2.1867,2.187,2.1872,2.1874,2.2006,2.2008,0,0,0,0,0,0,2.1692,2.1701,2.1783,2.1786,2.1729,2.1766,2.1772,2.1792,2.1821,2.1823,2.1799,2.1797,2.1845,2.1851,2.1856,2.1914,2.1871,2.1874,2.1876,2.2005,2.2007,2.2008,0,0,0,0,0,0,2.169,2.17,2.1781,2.1743,2.1753,2.1769,2.1792,2.1794,2.1808,2.1826,2.1828,2.181,2.1845,2.1852,2.1893,2.1916,2.1876,2.1879,2.2003,2.2006,2.2008,2.2031,0,0,0,0,0,0,2.1687,2.1699,2.1719,2.1744,2.1755,2.1818,2.1794,2.1796,2.1814,2.1812,2.1837,2.184,2.1844,2.1889,2.1897,2.1919,2.1881,2.2001,2.2004,2.2007,2.2028,2.2033,2.2038,0,0,0,0,0,2.1683,2.1723,2.172,2.173,2.1781,2.182,2.1826,2.1831,2.1816,2.1835,2.1846,2.1839,2.1912,2.1893,2.1902,2.1926,2.2,2.2003,2.2007,2.2026,2.2032,2.2038,0,0,0,0,0,0,2.17,2.1727,2.1723,2.1773,2.1794,2.1818,2.1842,2.1838,2.1863,2.186,2.1864,2.187,2.1912,2.1923,2.1902,2.1974,2.1954,2.1959,2.1965,2.1971,2.1976,2.1972,2.1884,0,0,0,0,0,2.171,2.174,2.1761,2.1803,2.1814,2.1826,2.1843,2.1845,2.1867,2.1875,2.189,2.191,2.1937,2.1955,2.1981,2.203,2.2034,2.2051,2.2056,2.206,2.2064,2.2088,2.2095,2.202,2.202,2.202,0,0,2.173,2.1748,2.1767,2.1807,2.1824,2.1853,2.1834,2.1867,2.1888,2.188,2.192,2.1931,2.1954,2.1998,2.2019,2.2009,2.2086,2.2064,2.2067,2.2069,2.2092,2.2099,2.2105,2.2022,2.2022,2.2021,0,0,2.1781,2.1799,2.1835,2.1852,2.1877,2.1885,2.1893,2.1917,2.1924,2.1964,2.1958,2.1983,2.2031,2.2047,2.2061,2.2116,2.211,2.2125,2.2151,2.2174,2.218,2.2185,2.2203,2.221,2.2129,2.2129,2.2129,0,2.1803,2.1849,2.1854,2.1887,2.1903,2.1898,2.1933,2.1949,2.1981,2.1992,2.1981,2.2039,2.2054,2.2101,2.2115,2.2127,2.2135,2.2122,2.2179,2.2184,2.2189,2.2206,2.2213,2.2131,2.2131,2.2131,2.213,0,2.1873,2.1904,2.193,2.1961,2.1981,2.2015,2.2024,2.2043,2.2043,2.2051,2.2091,2.2108,2.2137,2.2149,2.2149,2.2195,2.2188,2.2178,2.2158,2.2198,2.2214,2.222,2.2133,2.2133,2.2132,2.2132,0,0,2.1937,2.197,2.1979,2.1992,2.2018,2.2042,2.2075,2.2103,2.2119,2.2141,2.2167,2.2207,2.2197,2.2213,2.2215,2.2235,2.2275,2.2223,2.2223,2.223,2.2325,2.2331,2.2339,2.2272,2.2273,2.2274,2.2322,0,2.1989,2.2048,2.2052,2.2104,2.2132,2.2126,2.2154,2.2173,2.2181,2.2205,2.2213,2.2241,2.2227,2.2236,2.2257,2.2266,2.2294,2.2263,2.2294,2.2295,2.2287,2.2347,2.2354,2.2399,2.2329,2.233,2.2331,0,2.2058,2.2082,2.2137,2.2158,2.2169,2.2195,2.222,2.2244,2.2263,2.2268,2.2285,2.2283,2.2315,2.2294,2.2336,2.2315,2.2328,2.2334,2.2336,2.2338,2.2314,2.2349,2.2414,2.242,2.2341,2.234,2.2339,0,2.2097,2.2143,2.2181,2.2193,2.2218,2.2236,2.2247,2.2266,2.2282,2.2304,2.2314,2.2339,2.2352,2.2371,2.2376,2.236,2.2417,2.2397,2.242,2.242,2.2431,2.243,2.2497,2.2442,2.2442,2.2442,2.2442,0,2.2154,2.2187,2.2198,2.2222,2.2258,2.2262,2.2298,2.2308,2.2324,2.2348,2.2345,2.2367,2.2372,2.2395,2.2399,2.2432,2.2438,2.2441,2.2441,2.2441,2.244,2.2448,2.2444,2.2444,2.2443,2.2443,2.2443,0,2.2203,2.2212,2.2253,2.2274,2.2279,2.2305,2.2322,2.2343,2.2351,2.2381,2.2388,2.2399,2.2426,2.2432,2.2464,2.2466,2.2505,2.2503,2.2498,2.2497,2.2519,2.2516,2.2592,2.2602,2.2542,2.2543,2.2543,0,2.2238,2.2264,2.2287,2.2303,2.2315,2.2341,2.2357,2.2362,2.2378,2.2402,2.242,2.2446,2.2467,2.2509,2.2519,2.2543,2.254,2.2565,2.2544,2.2541,2.2538,2.2536,2.2538,2.2569,2.257,2.257,2.2571,0,2.2299,2.2302,2.2326,2.2351,2.237,2.239,2.2409,2.2422,2.2429,2.2448,2.2475,2.2491,2.2523,2.2548,2.2571,2.2582,2.2577,2.2577,2.2584,2.2582,2.2578,2.2578,2.2507,2.2575,2.2575,2.2575,2.2574,2.2574,2.2341,2.2362,2.2381,2.2407,2.2422,2.2439,2.246,2.247,2.2493,2.2519,2.252,2.2549,2.2566,2.2597,2.2608,2.263,2.2622,2.2632,2.2634,2.2635,2.2636,2.2575,2.2634,2.2634,2.2634,2.2634,2.2634,0,2.24,2.2411,2.2436,2.2462,2.2482,2.2476,2.2497,2.2513,2.2539,2.2556,2.2576,2.2606,2.263,2.2642,2.2665,2.268,2.2678,2.2685,2.2683,2.2685,2.2643,2.2635,2.2686,2.2686,2.2686,2.2686,2.2686,2.2686,2.2432,2.2467,2.2472,2.2514,2.2525,2.2553,2.2565,2.258,2.2593,2.2627,2.2647,2.2655,2.2669,2.2693,2.2714,2.2716,2.2724,2.2733,2.2734,2.2694,2.2689,2.2684,2.2675,2.2735,2.2735,2.2774,2.2775,2.2775]}]]